Location: Elizabeth Ann Machol Dragonfly Observatory
(32.8132°N, 108.2740°W)
Time: 09:20:52
(UTC-06:00)

Hubble Space Telescope - Visible Passes

Search period start: 20 October 2019 00:00
Search period end: 30 October 2019 00:00
Orbit: 536 x 540 km, 28.5° (Epoch: 19 October)

Date Brightness Start Highest point End Pass type
(mag) Time Alt. Az. Time Alt. Az. Time Alt. Az.
27 Oct 2.7 07:00:54 10° SW 07:04:21 26° SSE 07:07:47 10° ESE visible
28 Oct 3.5 05:13:06 11° SSE 05:13:06 11° SSE 05:14:25 10° SE visible
28 Oct 2.4 06:50:05 10° SW 06:53:42 30° SSE 06:57:19 10° ESE visible
29 Oct 3.5 05:03:29 13° SE 05:03:29 13° SE 05:04:38 10° ESE visible
29 Oct 2.1 06:39:20 10° SW 06:43:04 34° SSE 06:46:48 10° ESE visible
